This demonstration page uses our WeatherBlox Daily Observations layout. Learn more.

Left ArrowRight Arrow

Hourly Observations for January 4, 2020

Temp ( °F °C ) Dew Point ( °F °C ) Humidity (%) Winds ( mph kmh ) Pressure ( in mb ) Visibility ( mi km ) Precip ( " mm )
12:53 am 00:53 Clear 44 6.7 29 -1.7 55 55 SW 29 46 29.80 1009 10 16 0.00 0.00
1:53 am 01:53 Clear 42 5.6 29 -1.7 60 60 SW 23 37 29.78 1009 10 16 0.00 0.00
2:53 am 02:53 Clear 42 5.6 28 -2.2 58 58 SW 23 37 29.76 1008 10 16 0.00 0.00
3:53 am 03:53 Clear 40 4.4 28 -2.2 63 63 SW 20 31 29.73 1007 10 16 0.00 0.00
4:53 am 04:53 Clear 44 6.7 25 -3.9 47 47 SSW 23 37 29.68 1005 10 16 0.00 0.00
5:53 am 05:53 Clear 38 3.3 26 -3.3 62 62 WSW 14 22 29.66 1005 10 16 0.00 0.00
6:53 am 06:53 Clear 41 5 25 -3.9 53 53 SW 17 28 29.62 1003 10 16 0.00 0.00
7:53 am 07:53 Clear 45 7.2 24 -4.4 44 44 SW 18 30 29.61 1003 10 16 0.00 0.00
8:53 am 08:53 Sunny 45 7.2 25 -3.9 46 46 SW 21 33 29.61 1003 10 16 0.00 0.00
9:53 am 09:53 Sunny 42 5.6 26 -3.3 53 53 WSW 16 26 29.64 1004 10 16 0.00 0.00
10:53 am 10:53 Sunny 47 8.3 27 -2.8 46 46 WSW 16 26 29.64 1004 10 16 0.00 0.00
11:53 am 11:53 Sunny 52 11.1 28 -2.2 40 40 SW 22 35 29.61 1003 10 16 0.00 0.00
12:53 pm 12:53 Sunny 51 10.6 31 -0.6 46 46 SW 23 37 29.61 1003 10 16 0.00 0.00
1:53 pm 13:53 Sunny 49 9.4 27 -2.8 43 43 W 33 54 29.63 1003 10 16 0.00 0.00
2:53 pm 14:53 Sunny 46 7.8 21 -6.1 37 37 WSW 38 61 29.67 1005 10 16 0.00 0.00
3:53 pm 15:53 Sunny 42 5.6 23 -5 47 47 W 38 61 29.80 1009 10 16 0.00 0.00
4:53 pm 16:53 Partly Cloudy 38 3.3 25 -3.9 60 60 W 29 46 29.84 1011 10 16 0.00 0.00
5:53 pm 17:53 Mostly Clear 36 2.2 24 -4.4 62 62 WSW 26 43 29.93 1014 10 16 0.00 0.00
6:53 pm 18:53 Cloudy 36 2.2 24 -4.4 62 62 W 22 35 30.00 1016 10 16 0.00 0.00
7:53 pm 19:53 Cloudy 35 1.7 23 -5 61 61 WSW 20 31 30.05 1018 10 16 0.00 0.00
8:53 pm 20:53 Cloudy 36 2.2 20 -6.7 52 52 W 20 31 30.11 1020 10 16 0.00 0.00
9:53 pm 21:53 Cloudy 33 0.6 26 -3.3 75 75 SW 10 17 30.17 1022 10 16 0.00 0.00
10:53 pm 22:53 Clear 32 0 22 -5.6 66 66 SW 14 22 30.20 1023 10 16 0.00 0.00
11:53 pm 23:53 Clear 29 -1.7 21 -6.1 72 72 SW 15 24 30.22 1023 10 16 0.00 0.00

Powered by AerisWeather